AAL1400 MKJP-KMIA

Flight info

Callsign AAL1400
Flight time 1h 33m
Altitude 36000
Route ALTIB UM779 ZEUSS VIICE2
Aircraft A320/M-SDE3FGHIRWY/LB1

Departure

Time 2026-05-05 00:20
Airport Norman Manley International Airport (MKJP)

Arrival

Time 2026-05-05 01:53
Airport Miami International Airport (KMIA)
Time Latitude Longitude Altitude Speed Heading
2026-05-05 00:01 17.93624 -76.78046 14 ft 0 kts 112°
2026-05-05 00:10 17.93629 -76.78057 15 ft 3 kts 114°
2026-05-05 00:10 17.93636 -76.78076 14 ft 3 kts 113°
2026-05-05 00:10 17.93644 -76.78092 14 ft 3 kts 158°
2026-05-05 00:11 17.93640 -76.78101 14 ft 3 kts 229°
2026-05-05 00:11 17.93639 -76.78103 14 ft 3 kts 233°
2026-05-05 00:11 17.93629 -76.78120 15 ft 3 kts 232°
2026-05-05 00:11 17.93626 -76.78122 14 ft 1 kts 202°
2026-05-05 00:12 17.93642 -76.78115 14 ft 3 kts 199°
2026-05-05 00:12 17.93652 -76.78112 15 ft 0 kts 202°
2026-05-05 00:13 17.93650 -76.78113 14 ft 1 kts 202°
2026-05-05 00:14 17.93623 -76.78124 14 ft 8 kts 202°
2026-05-05 00:14 17.93560 -76.78151 14 ft 11 kts 202°
2026-05-05 00:14 17.93520 -76.78215 14 ft 12 kts 272°
2026-05-05 00:14 17.93555 -76.78302 14 ft 14 kts 294°
2026-05-05 00:15 17.93594 -76.78405 14 ft 16 kts 291°
2026-05-05 00:15 17.93640 -76.78525 14 ft 19 kts 291°
2026-05-05 00:15 17.93679 -76.78627 14 ft 20 kts 292°
2026-05-05 00:15 17.93684 -76.78639 14 ft 21 kts 292°
2026-05-05 00:16 17.93737 -76.78775 14 ft 18 kts 291°
2026-05-05 00:16 17.93785 -76.78904 14 ft 20 kts 292°
2026-05-05 00:16 17.93840 -76.79044 15 ft 22 kts 292°
2026-05-05 00:16 17.93877 -76.79138 14 ft 24 kts 292°
2026-05-05 00:17 17.93913 -76.79229 15 ft 25 kts 292°
2026-05-05 00:17 17.93980 -76.79407 14 ft 27 kts 290°
2026-05-05 00:18 17.94048 -76.79583 13 ft 25 kts 292°
2026-05-05 00:18 17.94093 -76.79740 13 ft 22 kts 279°
2026-05-05 00:18 17.94090 -76.79898 13 ft 21 kts 229°
2026-05-05 00:18 17.94002 -76.79887 13 ft 11 kts 118°
2026-05-05 00:19 17.94000 -76.79883 13 ft 6 kts 116°
2026-05-05 00:19 17.93885 -76.79583 13 ft 80 kts 110°
2026-05-05 00:19 17.93604 -76.78852 13 ft 135 kts 111°
2026-05-05 00:19 17.93210 -76.77832 281 ft 154 kts 112°
2026-05-05 00:20 17.92814 -76.76824 1052 ft 143 kts 111°
2026-05-05 00:20 17.92423 -76.75800 1439 ft 162 kts 111°
2026-05-05 00:20 17.91978 -76.74630 1687 ft 184 kts 111°
2026-05-05 00:20 17.91470 -76.73291 1951 ft 210 kts 110°
2026-05-05 00:21 17.91256 -76.71705 2315 ft 235 kts 82°
2026-05-05 00:21 17.91867 -76.70033 2916 ft 253 kts 63°
2026-05-05 00:21 17.92824 -76.68470 3791 ft 259 kts 49°
2026-05-05 00:21 17.94354 -76.67427 4647 ft 270 kts 20°
2026-05-05 00:22 17.96242 -76.67246 5513 ft 280 kts 353°
2026-05-05 00:22 17.98061 -76.67994 6362 ft 288 kts 329°
2026-05-05 00:22 17.99757 -76.69142 7252 ft 290 kts 335°
2026-05-05 00:22 18.01627 -76.69965 8025 ft 293 kts 343°
2026-05-05 00:23 18.03537 -76.70591 8813 ft 294 kts 346°
2026-05-05 00:23 18.05494 -76.71183 9500 ft 299 kts 346°
2026-05-05 00:23 18.07498 -76.71812 10197 ft 303 kts 344°
2026-05-05 00:23 18.09582 -76.72510 10388 ft 326 kts 343°
2026-05-05 00:24 18.11791 -76.73297 10737 ft 341 kts 341°
2026-05-05 00:24 18.14039 -76.74135 11335 ft 346 kts 341°
2026-05-05 00:24 18.16313 -76.75001 12002 ft 348 kts 340°
2026-05-05 00:24 18.18603 -76.75883 12650 ft 351 kts 340°
2026-05-05 00:25 18.20908 -76.76772 13289 ft 355 kts 340°
2026-05-05 00:25 18.23238 -76.77668 13878 ft 359 kts 340°
2026-05-05 00:25 18.25597 -76.78574 14461 ft 363 kts 339°
2026-05-05 00:25 18.27973 -76.79487 15067 ft 365 kts 339°
2026-05-05 00:26 18.30370 -76.80403 15690 ft 367 kts 339°
2026-05-05 00:26 18.32786 -76.81321 16259 ft 370 kts 339°
2026-05-05 00:26 18.35215 -76.82247 16820 ft 373 kts 339°
2026-05-05 00:26 18.37669 -76.83184 17376 ft 376 kts 338°
2026-05-05 00:27 18.40135 -76.84129 17935 ft 379 kts 338°
2026-05-05 00:27 18.42627 -76.85083 18486 ft 382 kts 338°
2026-05-05 00:27 18.45137 -76.86045 19028 ft 385 kts 338°
2026-05-05 00:27 18.47665 -76.87013 19572 ft 388 kts 338°
2026-05-05 00:28 18.50207 -76.87987 20105 ft 390 kts 338°
2026-05-05 00:28 18.52770 -76.88970 20631 ft 393 kts 338°
2026-05-05 00:28 18.55348 -76.89958 21147 ft 396 kts 338°
2026-05-05 00:28 18.57945 -76.90951 21651 ft 398 kts 339°
2026-05-05 00:29 18.60555 -76.91949 22137 ft 401 kts 339°
2026-05-05 00:29 18.63184 -76.92959 22618 ft 403 kts 338°
2026-05-05 00:29 18.65825 -76.93976 23092 ft 406 kts 338°
2026-05-05 00:29 18.68488 -76.94998 23551 ft 408 kts 339°
2026-05-05 00:30 18.71161 -76.96023 23987 ft 410 kts 339°
2026-05-05 00:30 18.73854 -76.97054 24384 ft 414 kts 339°
2026-05-05 00:30 18.76576 -76.98097 24732 ft 417 kts 339°
2026-05-05 00:30 18.79299 -76.99142 25150 ft 418 kts 338°
2026-05-05 00:31 18.82041 -77.00196 25524 ft 420 kts 338°
2026-05-05 00:31 18.84799 -77.01255 25884 ft 423 kts 338°
2026-05-05 00:31 18.87572 -77.02317 26238 ft 425 kts 338°
2026-05-05 00:31 18.90320 -77.03373 26586 ft 427 kts 337°
2026-05-05 00:32 18.93120 -77.04453 26917 ft 429 kts 337°
2026-05-05 00:32 18.95935 -77.05539 27243 ft 432 kts 337°
2026-05-05 00:32 18.98756 -77.06630 27556 ft 434 kts 337°
2026-05-05 00:32 19.01606 -77.07730 27752 ft 439 kts 337°
2026-05-05 00:33 19.04486 -77.08840 27981 ft 443 kts 337°
2026-05-05 00:33 19.07402 -77.09967 28107 ft 449 kts 336°
2026-05-05 00:33 19.10358 -77.11108 28233 ft 455 kts 336°
2026-05-05 00:33 19.13348 -77.12260 28361 ft 460 kts 337°
2026-05-05 00:34 19.16374 -77.13425 28488 ft 465 kts 336°
2026-05-05 00:34 19.19427 -77.14603 28682 ft 468 kts 336°
2026-05-05 00:34 19.22490 -77.15786 28991 ft 469 kts 336°
2026-05-05 00:34 19.25551 -77.16967 29316 ft 468 kts 336°
2026-05-05 00:35 19.28613 -77.18147 29670 ft 468 kts 336°
2026-05-05 00:35 19.31672 -77.19328 30031 ft 467 kts 336°
2026-05-05 00:35 19.34721 -77.20506 30400 ft 466 kts 335°
2026-05-05 00:35 19.37762 -77.21681 30806 ft 465 kts 335°
2026-05-05 00:36 19.40800 -77.22856 31229 ft 464 kts 335°
2026-05-05 00:36 19.43818 -77.24026 31662 ft 461 kts 335°
2026-05-05 00:36 19.46825 -77.25189 32118 ft 458 kts 335°
2026-05-05 00:36 19.49810 -77.26346 32557 ft 455 kts 335°
2026-05-05 00:37 19.52776 -77.27493 32988 ft 453 kts 335°
2026-05-05 00:37 19.55724 -77.28637 33431 ft 450 kts 335°
2026-05-05 00:37 19.58653 -77.29777 33864 ft 447 kts 334°
2026-05-05 00:37 19.61567 -77.30910 34282 ft 445 kts 334°
2026-05-05 00:38 19.64468 -77.32036 34676 ft 444 kts 334°
2026-05-05 00:38 19.67361 -77.33159 35032 ft 443 kts 334°
2026-05-05 00:38 19.70253 -77.34283 35381 ft 442 kts 334°
2026-05-05 00:38 19.73137 -77.35407 35697 ft 441 kts 334°
2026-05-05 00:39 19.76017 -77.36531 35957 ft 441 kts 334°
2026-05-05 00:39 19.81806 -77.38795 36017 ft 446 kts 334°
2026-05-05 00:40 19.87639 -77.41069 36018 ft 447 kts 334°
2026-05-05 00:40 19.93444 -77.43324 36016 ft 446 kts 334°
2026-05-05 00:41 19.99275 -77.45591 36020 ft 446 kts 334°
2026-05-05 00:41 20.05108 -77.47867 36028 ft 446 kts 333°
2026-05-05 00:42 20.10899 -77.50133 36034 ft 447 kts 333°
2026-05-05 00:42 20.16737 -77.52413 36036 ft 447 kts 333°
2026-05-05 00:43 20.22570 -77.54702 36036 ft 447 kts 333°
2026-05-05 00:43 20.28407 -77.56986 36037 ft 447 kts 333°
2026-05-05 00:44 20.34247 -77.59271 36037 ft 447 kts 333°
2026-05-05 00:44 20.40074 -77.61559 36032 ft 446 kts 333°
2026-05-05 00:45 20.45903 -77.63848 36031 ft 446 kts 333°
2026-05-05 00:45 20.51727 -77.66141 36026 ft 446 kts 333°
2026-05-05 00:46 20.57558 -77.68436 36029 ft 447 kts 333°
2026-05-05 00:46 20.62404 -77.70340 36031 ft 447 kts 333°
2026-05-05 00:47 20.68235 -77.72636 36032 ft 446 kts 333°
2026-05-05 00:47 20.75010 -77.75301 36030 ft 447 kts 333°
2026-05-05 00:48 20.79899 -77.77228 36031 ft 447 kts 333°
2026-05-05 00:48 20.85731 -77.79538 36029 ft 447 kts 333°
2026-05-05 00:49 20.91568 -77.81852 36028 ft 447 kts 333°
2026-05-05 00:49 20.97410 -77.84160 36032 ft 448 kts 333°
2026-05-05 00:50 21.03256 -77.86471 36034 ft 448 kts 333°
2026-05-05 00:50 21.09063 -77.88772 36032 ft 448 kts 333°
2026-05-05 00:51 21.14911 -77.91092 36032 ft 448 kts 333°
2026-05-05 00:51 21.20764 -77.93408 36031 ft 448 kts 333°
2026-05-05 00:52 21.26619 -77.95726 36033 ft 449 kts 333°
2026-05-05 00:52 21.32468 -77.98057 36035 ft 449 kts 332°
2026-05-05 00:53 21.38323 -78.00391 36033 ft 449 kts 332°
2026-05-05 00:53 21.44163 -78.02719 36042 ft 448 kts 332°
2026-05-05 00:54 21.50014 -78.05054 36044 ft 449 kts 332°
2026-05-05 00:54 21.55866 -78.07385 36037 ft 449 kts 332°
2026-05-05 00:55 21.61717 -78.09717 36043 ft 449 kts 332°
2026-05-05 00:55 21.67575 -78.12054 36038 ft 449 kts 332°
2026-05-05 00:56 21.73417 -78.14387 36048 ft 449 kts 332°
2026-05-05 00:56 21.79272 -78.16735 36046 ft 449 kts 332°
2026-05-05 00:57 21.85130 -78.19082 36035 ft 449 kts 332°
2026-05-05 00:57 21.90988 -78.21431 36038 ft 449 kts 332°
2026-05-05 00:58 21.96831 -78.23775 36037 ft 449 kts 332°
2026-05-05 00:58 22.02685 -78.26125 36038 ft 449 kts 332°
2026-05-05 00:59 22.08499 -78.28461 36037 ft 449 kts 332°
2026-05-05 00:59 22.14347 -78.30820 36036 ft 449 kts 332°
2026-05-05 01:00 22.20204 -78.33180 36038 ft 449 kts 332°
2026-05-05 01:00 22.26057 -78.35537 36043 ft 449 kts 332°
2026-05-05 01:01 22.31918 -78.37899 36002 ft 451 kts 332°
2026-05-05 01:01 22.37823 -78.40283 35996 ft 454 kts 332°
2026-05-05 01:02 22.43764 -78.42691 36001 ft 457 kts 332°
2026-05-05 01:02 22.49732 -78.45102 36005 ft 459 kts 332°
2026-05-05 01:03 22.55719 -78.47521 36013 ft 460 kts 332°
2026-05-05 01:03 22.61717 -78.49940 36020 ft 461 kts 332°
2026-05-05 01:04 22.67720 -78.52377 36032 ft 461 kts 332°
2026-05-05 01:04 22.76725 -78.56024 36042 ft 463 kts 335°
2026-05-05 01:05 22.83123 -78.57454 36049 ft 472 kts 342°
2026-05-05 01:05 22.89595 -78.58653 36037 ft 472 kts 342°
2026-05-05 01:06 22.96070 -78.59861 36038 ft 472 kts 342°
2026-05-05 01:06 23.02539 -78.61089 36036 ft 472 kts 342°
2026-05-05 01:07 23.08970 -78.62309 36037 ft 472 kts 342°
2026-05-05 01:07 23.15446 -78.63521 36043 ft 472 kts 342°
2026-05-05 01:08 23.21921 -78.64737 36049 ft 472 kts 342°
2026-05-05 01:08 23.28395 -78.65960 36041 ft 472 kts 342°
2026-05-05 01:09 23.34868 -78.67189 36039 ft 472 kts 342°
2026-05-05 01:09 23.41337 -78.68416 36042 ft 472 kts 342°
2026-05-05 01:10 23.47814 -78.69633 36051 ft 472 kts 342°
2026-05-05 01:10 23.54278 -78.70864 36038 ft 472 kts 341°
2026-05-05 01:11 23.60745 -78.72098 36043 ft 472 kts 341°
2026-05-05 01:11 23.67213 -78.73333 36037 ft 472 kts 341°
2026-05-05 01:12 23.73690 -78.74563 36038 ft 472 kts 341°
2026-05-05 01:12 23.80160 -78.75793 36045 ft 472 kts 341°
2026-05-05 01:13 23.86638 -78.77019 36038 ft 472 kts 341°
2026-05-05 01:13 23.93116 -78.78256 36050 ft 472 kts 341°
2026-05-05 01:14 23.99495 -78.79769 36041 ft 461 kts 331°
2026-05-05 01:14 24.02386 -78.81173 36055 ft 450 kts 322°
2026-05-05 01:14 24.05057 -78.82917 36054 ft 446 kts 320°
2026-05-05 01:15 24.10372 -78.86438 36055 ft 447 kts 320°
2026-05-05 01:15 24.15696 -78.89954 36058 ft 447 kts 321°
2026-05-05 01:16 24.21010 -78.93476 36053 ft 446 kts 320°
2026-05-05 01:16 24.26288 -78.96976 36053 ft 447 kts 320°
2026-05-05 01:17 24.31604 -79.00500 36063 ft 447 kts 321°
2026-05-05 01:17 24.36923 -79.04028 36060 ft 446 kts 320°
2026-05-05 01:18 24.42232 -79.07557 36061 ft 446 kts 320°
2026-05-05 01:18 24.47535 -79.11086 36059 ft 446 kts 320°
2026-05-05 01:19 24.52837 -79.14615 36058 ft 446 kts 320°
2026-05-05 01:19 24.58134 -79.18151 36056 ft 445 kts 320°
2026-05-05 01:20 24.63399 -79.21647 35924 ft 437 kts 320°
2026-05-05 01:20 24.65989 -79.23367 35672 ft 433 kts 320°
2026-05-05 01:20 24.68561 -79.25084 35419 ft 433 kts 320°
2026-05-05 01:21 24.71133 -79.26809 34804 ft 434 kts 320°
2026-05-05 01:21 24.73719 -79.28549 33955 ft 437 kts 321°
2026-05-05 01:21 24.76314 -79.30297 33071 ft 440 kts 321°
2026-05-05 01:21 24.78941 -79.32067 32138 ft 443 kts 321°
2026-05-05 01:22 24.81588 -79.33846 31145 ft 446 kts 322°
2026-05-05 01:22 24.84245 -79.35626 30058 ft 449 kts 322°
2026-05-05 01:22 24.86925 -79.37417 28859 ft 453 kts 323°
2026-05-05 01:22 24.89625 -79.39223 27655 ft 456 kts 323°
2026-05-05 01:23 24.92339 -79.41043 26415 ft 458 kts 323°
2026-05-05 01:23 24.95068 -79.42872 25207 ft 460 kts 323°
2026-05-05 01:23 24.97805 -79.44708 24048 ft 461 kts 323°
2026-05-05 01:23 25.00528 -79.46535 23315 ft 452 kts 323°
2026-05-05 01:24 25.03138 -79.48278 23100 ft 423 kts 323°
2026-05-05 01:24 25.05570 -79.49897 22717 ft 397 kts 323°
2026-05-05 01:24 25.07887 -79.51450 22338 ft 385 kts 322°
2026-05-05 01:24 25.10155 -79.52982 22083 ft 380 kts 322°
2026-05-05 01:25 25.12394 -79.54501 21823 ft 377 kts 322°
2026-05-05 01:25 25.14627 -79.56020 21579 ft 377 kts 322°
2026-05-05 01:25 25.16856 -79.57533 21248 ft 375 kts 322°
2026-05-05 01:25 25.19046 -79.59015 20734 ft 373 kts 322°
2026-05-05 01:26 25.21254 -79.60508 20207 ft 371 kts 323°
2026-05-05 01:26 25.23453 -79.61991 19677 ft 362 kts 323°
2026-05-05 01:26 25.25595 -79.63435 19174 ft 359 kts 323°
2026-05-05 01:26 25.27709 -79.64864 18673 ft 356 kts 323°
2026-05-05 01:27 25.29814 -79.66286 18165 ft 354 kts 323°
2026-05-05 01:27 25.31912 -79.67702 17634 ft 352 kts 323°
2026-05-05 01:27 25.33989 -79.69106 17147 ft 348 kts 323°
2026-05-05 01:27 25.36004 -79.70471 16735 ft 343 kts 323°
2026-05-05 01:28 25.38004 -79.71908 16208 ft 338 kts 317°
2026-05-05 01:28 25.39664 -79.73700 15765 ft 329 kts 305°
2026-05-05 01:28 25.40991 -79.75744 15528 ft 329 kts 301°
2026-05-05 01:28 25.42313 -79.77814 15251 ft 330 kts 302°
2026-05-05 01:29 25.43642 -79.79880 14965 ft 329 kts 302°
2026-05-05 01:29 25.44969 -79.81940 14681 ft 329 kts 302°
2026-05-05 01:29 25.46292 -79.83997 14396 ft 328 kts 302°
2026-05-05 01:29 25.47613 -79.86053 14112 ft 327 kts 302°
2026-05-05 01:30 25.48931 -79.88110 13704 ft 329 kts 302°
2026-05-05 01:30 25.50256 -79.90180 13063 ft 330 kts 302°
2026-05-05 01:30 25.51584 -79.92248 12513 ft 329 kts 302°
2026-05-05 01:30 25.52683 -79.93959 12122 ft 327 kts 302°
2026-05-05 01:31 25.54005 -79.96018 11570 ft 326 kts 302°
2026-05-05 01:31 25.55293 -79.98026 11425 ft 314 kts 302°
2026-05-05 01:31 25.56531 -79.99960 11297 ft 302 kts 302°
2026-05-05 01:31 25.57721 -80.01823 11131 ft 292 kts 302°
2026-05-05 01:32 25.58883 -80.03647 10930 ft 287 kts 302°
2026-05-05 01:32 25.60036 -80.05459 10566 ft 287 kts 302°
2026-05-05 01:32 25.61184 -80.07261 10228 ft 286 kts 302°
2026-05-05 01:32 25.62326 -80.09056 9897 ft 285 kts 302°
2026-05-05 01:33 25.63461 -80.10839 9567 ft 284 kts 303°
2026-05-05 01:33 25.64602 -80.12632 9236 ft 284 kts 303°
2026-05-05 01:33 25.65662 -80.14473 8914 ft 283 kts 295°
2026-05-05 01:33 25.66497 -80.16450 8667 ft 284 kts 294°
2026-05-05 01:34 25.67334 -80.18426 8411 ft 283 kts 294°
2026-05-05 01:34 25.68171 -80.20397 8152 ft 282 kts 294°
2026-05-05 01:34 25.68727 -80.21700 7986 ft 284 kts 294°
2026-05-05 01:34 25.69574 -80.23667 7678 ft 281 kts 295°
2026-05-05 01:35 25.70400 -80.25596 7403 ft 278 kts 294°
2026-05-05 01:35 25.71022 -80.27605 7122 ft 277 kts 281°
2026-05-05 01:35 25.71165 -80.29717 6846 ft 274 kts 267°
2026-05-05 01:35 25.71058 -80.31830 6566 ft 275 kts 266°
2026-05-05 01:36 25.70955 -80.33947 6286 ft 275 kts 266°
2026-05-05 01:36 25.70854 -80.36059 5943 ft 274 kts 266°
2026-05-05 01:36 25.70757 -80.38165 5584 ft 275 kts 266°
2026-05-05 01:36 25.70658 -80.40277 5257 ft 274 kts 266°
2026-05-05 01:37 25.70559 -80.42384 4925 ft 273 kts 266°
2026-05-05 01:37 25.70543 -80.44479 4590 ft 272 kts 274°
2026-05-05 01:37 25.70550 -80.46572 4231 ft 271 kts 266°
2026-05-05 01:37 25.70432 -80.48643 4035 ft 265 kts 269°
2026-05-05 01:38 25.70820 -80.50576 3906 ft 254 kts 299°
2026-05-05 01:38 25.71968 -80.51973 3783 ft 241 kts 330°
2026-05-05 01:38 25.73472 -80.52679 3615 ft 230 kts 352°
2026-05-05 01:38 25.75012 -80.52647 3599 ft 215 kts 16°
2026-05-05 01:39 25.76343 -80.51986 3543 ft 208 kts 38°
2026-05-05 01:39 25.77325 -80.50841 3431 ft 202 kts 60°
2026-05-05 01:39 25.77819 -80.49437 3213 ft 193 kts 81°
2026-05-05 01:39 25.77908 -80.47979 2974 ft 186 kts 88°
2026-05-05 01:40 25.77968 -80.46596 2736 ft 172 kts 87°
2026-05-05 01:40 25.78022 -80.45349 2516 ft 157 kts 87°
2026-05-05 01:40 25.78070 -80.44198 2329 ft 144 kts 88°
2026-05-05 01:40 25.78118 -80.43087 2144 ft 141 kts 87°
2026-05-05 01:41 25.78164 -80.42024 1966 ft 138 kts 86°
2026-05-05 01:41 25.78209 -80.40961 1781 ft 137 kts 86°
2026-05-05 01:41 25.78252 -80.39926 1615 ft 134 kts 86°
2026-05-05 01:41 25.78293 -80.38905 1376 ft 131 kts 86°
2026-05-05 01:42 25.78345 -80.37895 1251 ft 131 kts 85°
2026-05-05 01:42 25.78402 -80.36883 1134 ft 131 kts 85°
2026-05-05 01:42 25.78449 -80.35872 924 ft 131 kts 87°
2026-05-05 01:42 25.78483 -80.34862 735 ft 131 kts 86°
2026-05-05 01:43 25.78513 -80.33851 568 ft 131 kts 86°
2026-05-05 01:43 25.78563 -80.32846 368 ft 130 kts 86°
2026-05-05 01:43 25.78602 -80.31836 194 ft 132 kts 87°
2026-05-05 01:43 25.78642 -80.30825 28 ft 130 kts 87°
2026-05-05 01:44 25.78669 -80.29915 83 ft 119 kts 87°
2026-05-05 01:44 25.78689 -80.28960 618 ft 131 kts 88°
2026-05-05 01:44 25.78698 -80.27895 1227 ft 143 kts 88°
2026-05-05 01:44 25.78727 -80.26743 1820 ft 151 kts 87°
2026-05-05 01:45 25.78773 -80.25541 2224 ft 165 kts 88°
2026-05-05 01:45 25.78802 -80.24173 2546 ft 189 kts 89°
2026-05-05 01:45 25.78546 -80.22695 2933 ft 205 kts 112°
2026-05-05 01:45 25.77930 -80.21262 3000 ft 205 kts 116°
2026-05-05 01:46 25.77070 -80.20025 3003 ft 206 kts 144°
2026-05-05 01:46 25.75705 -80.19559 3006 ft 212 kts 180°
2026-05-05 01:46 25.74310 -80.20080 3008 ft 218 kts 216°
2026-05-05 01:46 25.73409 -80.21423 3006 ft 222 kts 251°
2026-05-05 01:47 25.72958 -80.23064 3007 ft 223 kts 248°
2026-05-05 01:47 25.72361 -80.24656 3011 ft 223 kts 245°
2026-05-05 01:47 25.71728 -80.26228 3006 ft 223 kts 245°
2026-05-05 01:47 25.71250 -80.27857 2999 ft 224 kts 264°
2026-05-05 01:48 25.71177 -80.29584 3008 ft 224 kts 270°
2026-05-05 01:48 25.71178 -80.31309 3007 ft 224 kts 270°
2026-05-05 01:48 25.71190 -80.33041 3006 ft 224 kts 271°
2026-05-05 01:48 25.71203 -80.34759 2873 ft 221 kts 271°
2026-05-05 01:49 25.71215 -80.36449 2680 ft 216 kts 271°
2026-05-05 01:49 25.71224 -80.38080 2557 ft 206 kts 271°
2026-05-05 01:49 25.71272 -80.39582 2397 ft 190 kts 282°
2026-05-05 01:49 25.71819 -80.40896 1953 ft 191 kts 315°
2026-05-05 01:50 25.72942 -80.41503 1853 ft 180 kts
2026-05-05 01:50 25.73955 -80.41002 1773 ft 152 kts 47°
2026-05-05 01:50 25.74659 -80.40210 1668 ft 138 kts 46°
2026-05-05 01:50 25.75346 -80.39469 1580 ft 136 kts 47°
2026-05-05 01:51 25.76010 -80.38750 1438 ft 134 kts 46°
2026-05-05 01:51 25.76673 -80.38035 1304 ft 132 kts 46°
2026-05-05 01:51 25.77277 -80.37273 1155 ft 131 kts 54°
2026-05-05 01:51 25.77775 -80.36430 924 ft 130 kts 63°
2026-05-05 01:52 25.78104 -80.35499 722 ft 130 kts 73°
2026-05-05 01:52 25.78325 -80.34531 581 ft 130 kts 77°
2026-05-05 01:52 25.78468 -80.33537 408 ft 130 kts 83°
2026-05-05 01:52 25.78551 -80.32538 269 ft 131 kts 87°
2026-05-05 01:53 25.78605 -80.31535 127 ft 132 kts 87°
2026-05-05 01:53 25.78649 -80.30538 29 ft 121 kts 87°
2026-05-05 01:53 25.78684 -80.29744 18 ft 82 kts 86°
2026-05-05 01:53 25.78707 -80.29324 18 ft 31 kts 82°
2026-05-05 01:54 25.78787 -80.29175 17 ft 11 kts 47°
2026-05-05 01:54 25.78823 -80.29043 18 ft 22 kts 81°
2026-05-05 01:54 25.78862 -80.28871 15 ft 25 kts 78°